Location: 22
(39.7117°N, 89.5929°W)
Time: 09:11:55
(UTC-05:00)

Transit 2A - Pass Details

Date: 12 August 2024
Orbit: 590 x 961 km, 66.7° (Epoch: 13 September)

Event Time Altitude Azimuth Distance (km) Brightness Sun altitude
Rises 12:55:49 0° 328° (NNW) 3,651 9.3 64.9°
Reaches altitude 10° 12:58:25 10° 327° (NNW) 2,700 8.7 64.9°
Maximum altitude 13:04:44 70° 245° (WSW) 996 8.1 64.9°
Drops below altitude 10° 13:10:45 10° 162° (SSE) 2,564 9.2 64.9°
Sets 13:13:10 0° 160° (SSE) 3,455 9.7 64.8°
